TimeEDT,TemperatureF,Dew PointF,Humidity,Sea Level PressureIn,VisibilityMPH,Wind Direction,Wind SpeedMPH,Gust SpeedMPH,PrecipitationIn,Events,Conditions,WindDirDegrees,DateUTC
12:51 AM,66.0,63.0,90,30.15,10.0,Calm,Calm,-,N/A,,Clear,0,2013-06-25 04:51:00
1:51 AM,64.9,63.0,93,30.13,10.0,Calm,Calm,-,N/A,,Clear,0,2013-06-25 05:51:00
2:51 AM,64.9,62.1,90,30.12,10.0,Calm,Calm,-,N/A,,Partly Cloudy,0,2013-06-25 06:51:00
3:04 AM,64.4,62.6,94,30.14,10.0,Calm,Calm,-,N/A,,Mostly Cloudy,0,2013-06-25 07:04:00
3:51 AM,64.9,63.0,93,30.11,10.0,Calm,Calm,-,N/A,,Overcast,0,2013-06-25 07:51:00
4:51 AM,64.0,62.1,93,30.10,10.0,Calm,Calm,-,N/A,,Mostly Cloudy,0,2013-06-25 08:51:00
5:28 AM,64.4,62.6,94,30.13,10.0,WSW,3.5,-,N/A,,Scattered Clouds,250,2013-06-25 09:28:00
5:51 AM,64.9,62.1,90,30.10,10.0,Calm,Calm,-,N/A,,Clear,0,2013-06-25 09:51:00
6:51 AM,66.0,63.0,90,30.11,10.0,Calm,Calm,-,N/A,,Scattered Clouds,0,2013-06-25 10:51:00
7:51 AM,66.9,64.0,90,30.12,10.0,Calm,Calm,-,N/A,,Clear,0,2013-06-25 11:51:00
8:12 AM,69.8,64.4,83,30.16,10.0,Calm,Calm,-,N/A,,Mostly Cloudy,0,2013-06-25 12:12:00
8:51 AM,70.0,64.9,84,30.14,10.0,Calm,Calm,-,N/A,,Overcast,0,2013-06-25 12:51:00
9:51 AM,75.0,66.0,73,30.14,10.0,South,3.5,-,N/A,,Overcast,190,2013-06-25 13:51:00
10:51 AM,77.0,64.9,66,30.14,10.0,WSW,5.8,-,N/A,,Overcast,250,2013-06-25 14:51:00
11:51 AM,80.1,64.0,58,30.13,10.0,SW,10.4,-,N/A,,Scattered Clouds,220,2013-06-25 15:51:00
12:51 PM,82.0,63.0,52,30.12,10.0,Variable,5.8,-,N/A,,Mostly Cloudy,0,2013-06-25 16:51:00
1:51 PM,82.0,62.1,51,30.08,10.0,Calm,Calm,-,N/A,,Partly Cloudy,0,2013-06-25 17:51:00
2:51 PM,84.9,61.0,44,30.08,10.0,WNW,10.4,-,N/A,,Clear,300,2013-06-25 18:51:00
3:51 PM,84.9,62.1,46,30.05,10.0,WSW,9.2,-,N/A,,Clear,250,2013-06-25 19:51:00
4:51 PM,84.9,62.1,46,30.03,10.0,SW,6.9,-,N/A,,Clear,220,2013-06-25 20:51:00
5:51 PM,84.9,63.0,48,30.01,10.0,WSW,6.9,-,N/A,,Clear,250,2013-06-25 21:51:00
6:51 PM,82.9,63.0,51,30.00,10.0,West,8.1,-,N/A,,Clear,280,2013-06-25 22:51:00
7:51 PM,80.1,64.9,60,30.02,10.0,WNW,6.9,-,N/A,,Clear,300,2013-06-25 23:51:00
8:51 PM,75.0,66.0,73,30.03,10.0,Calm,Calm,-,N/A,,Clear,0,2013-06-26 00:51:00
9:51 PM,72.0,64.9,78,30.04,10.0,Calm,Calm,-,N/A,,Clear,0,2013-06-26 01:51:00
10:51 PM,69.1,64.9,87,30.03,10.0,NNE,3.5,-,N/A,,Clear,20,2013-06-26 02:51:00
11:51 PM,70.0,64.9,84,30.00,10.0,SSW,5.8,-,N/A,,Clear,200,2013-06-26 03:51:00